Showing default

OMNI-L1, 52157

Orbit data source: Space-Track

OMNI-L1, 52157 is a payload satellite owned by OmniSpace (US) in SSO that was launched on Fri, 01 Apr 2022 UTC via an FALCON 9 launch vehicle from the Air Force Eastern Test Range (AFETR). Payload-class satellites include a variety of spacecraft equipped with specific instruments for various scientific and technological missions. These include communications satellites like Starlink; space stations such as the ISS; scientific satellites like the Hubble; Earth observation satellites from companies like Planet Labs, Umbra, and HawkEye 360; GPS; miniature CubeSats for education and research; and military/defense satellites.

Loading next visibility...
Identifier
52157, 2022-033A
Orbit
SSO
Country
Flag of USUS
Related business
Manufacturer
NANAV/THALES
Mission
Operational Commercial Communications
Bus & Motor
CUBESAT 12U, Unknown motor
Mass
~20 kg wet, ~20 kg dry
Launch date (UTC)
2022-04-01 (4 years ago)
Launch vehicle
FALCON 9
Launch site
Air Force Eastern Test Range (AFETR)
Object type
Payload
Rocket body
Debris
Shape & HBR
Box + 2 Pan, 0.5 m
Radar Cross Section
0.126 m², Medium (>0.1 m² and < 1m²)

Expand to show TLE details & history
Last TLE update: 13 hours ago

TLE from 13 hours ago
0 OMNI-L1
1 52157U 22033A   26170.74323465  .00001464  00000-0  18770-3 0  9991
2 52157  97.8396 249.8708 0003809 276.6835  83.3945 14.82756826227832
Epoch: 2026-06-19T17:50Z
TLE epoch observation values (Epoch: 2026-06-19T17:50:15.473Z)
Latitude
-0.00004°
Longitude
74.3385°
Altitude
623.357 km
Speed
7.547 km/s
True Right ascension
16h 39m 28s
True Declination
0° 00' 00"
Sunlit
Object was in full shadow at epoch
Visualization orbit readout
Latitude
Unknown
Longitude
Unknown
Altitude
Unknown
Speed
Unknown
Apparent Right ascension
Unknown
Apparent Declination
Unknown
Sunlit
N/A
Visualization observer readout
Local Sidereal Time
17:34:23
Azimuth
Unknown
Elevation
Unknown
Doppler factor
Unknown
Orbital elements
Apogee altitude
620.335 km
Perigee altitude
615.005 km
Semi-major axis
6,995.807 km
Eccentricity
0.00038
Inclination
97.8396°
RAAN
249.8708°
Arg. of periapsis
276.6835°
True anomaly
83.43786°
Mean anomaly
83.3945°
Eccentric anomaly
83.41618°
Mean motion
3.70925 °/min
Orbital period
97.05 mins
BSTAR
0.0001877
Loading maneuver chart data...
Computing Atmospheric mass density...

Documentation

Showing up to 5 results
|